Theta_e
344 342 345 348 349 351 350 351 348 347 350 349 347 348 346 351 353 351 353 354 351 353 353 354 356 357 356 353 351 349 346 342 339 337 334 331 328 326 326 326 327 325 327
342 335 334 333 333 337 342 345 345 349 344 345 345 344 345 345 346 348 351 351 352 351 353 354 355 357 358 356 353 351 347 344 341 338 335 331 328 325 324 325 326 326 325
339 341 332 333 335 339 337 337 338 340 341 342 347 345 341 340 339 346 347 347 349 351 351 353 354 355 357 358 356 353 349 346 343 339 336 331 327 323 323 324 325 325 325
334 339 329 331 334 335 332 335 336 334 333 332 335 339 340 342 344 345 345 343 348 350 352 353 352 354 353 356 358 356 351 347 343 340 336 330 325 323 322 323 325 324 324
329 333 329 330 335 328 329 331 332 336 335 336 333 335 337 340 342 336 343 346 350 345 348 353 351 352 351 353 356 357 353 349 344 341 335 327 324 322 322 324 323 322 323
330 333 330 334 334 328 328 331 336 332 332 332 331 334 339 337 339 340 342 342 343 349 349 353 353 353 351 353 354 355 353 351 348 340 329 325 323 323 322 322 323 323 322
332 335 331 333 333 333 333 334 331 332 325 329 329 330 333 337 343 338 339 340 341 344 347 351 350 349 354 351 351 352 349 344 334 330 326 323 323 322 321 321 321 321 322
333 333 335 335 339 330 338 333 332 326 325 326 326 327 321 326 332 340 342 343 343 344 344 349 350 351 351 353 351 345 340 336 333 329 324 323 322 320 319 318 319 320 320
334 335 333 335 337 336 327 333 332 330 321 324 334 325 320 318 328 336 344 339 344 343 344 343 340 342 344 345 346 341 336 333 331 329 325 321 319 319 318 318 319 319 320
333 333 334 335 339 332 334 332 327 328 329 322 322 325 334 332 323 321 328 336 341 338 339 336 333 334 337 338 338 335 332 329 328 325 322 320 321 317 317 318 317 317 318
334 328 335 336 336 331 334 337 332 331 326 321 319 320 327 322 331 325 320 324 333 341 337 332 329 327 328 329 330 329 327 325 322 323 321 319 317 317 316 316 316 316 317
323 329 328 336 337 334 334 331 333 331 329 326 322 321 317 316 317 319 319 324 325 330 333 327 325 322 321 322 325 324 322 320 318 316 316 315 313 312 313 314 314 315 316
319 326 334 332 327 333 332 333 333 332 329 326 327 321 320 318 319 318 317 317 318 325 329 323 322 320 319 320 319 320 319 316 314 313 312 310 310 311 311 311 312 312 313
319 325 327 329 331 331 332 333 328 327 331 326 326 326 321 320 319 318 316 315 314 318 328 323 320 316 317 317 319 317 314 314 312 311 310 309 309 309 309 309 309 310 310
318 322 325 326 325 326 329 332 328 328 328 328 329 327 323 321 320 320 318 317 316 313 315 317 314 315 315 318 317 313 312 312 311 309 308 308 308 308 308 308 308 308 308
318 319 320 322 324 324 326 329 326 328 324 324 322 327 325 322 323 320 319 318 319 318 315 322 317 314 316 314 315 312 311 311 309 308 308 307 307 307 307 306 306 306 306
314 314 315 315 316 320 323 325 327 323 320 320 324 321 321 325 320 319 319 318 318 320 319 315 315 314 312 311 312 311 312 309 308 308 307 306 306 306 306 305 304 304 304
313 312 313 312 312 316 320 320 319 314 314 318 318 320 319 319 324 326 319 324 321 325 324 315 311 310 310 311 310 309 310 310 307 307 307 306 306 305 305 305 304 303 302
309 311 311 312 311 311 313 313 314 314 314 315 315 316 318 319 320 319 321 320 320 324 328 316 310 310 309 309 307 308 308 308 306 307 307 306 305 305 305 304 304 302 302
309 310 310 311 311 310 310 308 309 310 310 311 315 315 317 318 319 321 320 323 324 324 324 315 309 307 307 307 307 305 303 306 304 306 308 307 307 306 305 304 304 303 301
309 309 307 308 311 309 308 310 307 307 309 310 311 314 315 318 317 317 317 322 324 327 315 309 306 305 304 304 303 305 304 302 303 306 308 308 308 307 305 303 302 302 300
307 307 304 305 306 308 305 305 307 310 310 310 308 312 312 316 314 312 312 313 315 316 313 309 306 304 304 305 307 305 301 300 300 311 310 307 309 305 303 301 300 300 299
304 303 303 304 303 306 303 302 304 308 308 309 308 309 311 312 314 314 312 310 311 311 314 315 307 306 305 307 306 303 302 302 305 309 311 305 309 304 305 302 300 299 299
303 303 303 304 303 306 303 301 302 307 307 307 309 310 310 311 314 316 315 316 317 320 317 315 312 311 310 309 307 305 304 306 310 311 314 305 308 305 305 303 301 300 300
302 302 304 304 304 306 302 300 302 307 306 307 307 307 308 312 307 305 314 315 320 322 313 310 309 304 302 303 306 306 304 302 306 308 313 309 308 306 306 305 303 301 300
303 303 303 306 305 307 302 300 301 305 305 304 307 311 305 309 304 302 313 315 316 311 308 307 306 304 305 305 305 308 307 308 308 306 314 310 308 306 303 307 307 306 302
Wind_Speed
3 5 5 6 7 9 10 8 9 8 18 6 3 20 10 8 11 6 5 15 15 15 16 18 19 21 21 21 20 20 20 19 17 15 13 9 7 5 5 5 7 6 7
4 7 5 5 7 7 9 12 12 12 1 13 11 11 10 10 10 6 10 7 16 18 19 20 20 21 22 23 22 22 22 21 21 19 16 11 8 4 4 6 7 7 8
4 5 4 5 7 7 9 7 10 12 12 11 12 13 13 15 12 11 10 5 13 17 21 21 22 22 23 23 24 24 23 23 22 20 16 11 7 3 3 6 7 7 9
3 5 5 5 7 8 7 7 7 8 10 11 11 12 11 8 9 10 9 9 6 11 15 17 14 17 19 23 23 24 25 24 23 19 17 15 8 2 2 5 6 7 10
5 5 3 5 7 6 6 6 7 8 8 8 11 10 10 10 11 12 10 7 11 9 10 15 17 16 19 22 20 23 23 24 24 23 22 16 11 3 2 4 6 9 9
4 5 3 3 6 5 6 7 7 8 9 10 11 10 9 11 11 8 10 7 10 11 11 9 6 8 17 15 16 20 22 23 27 18 20 13 9 6 3 4 7 7 9
5 4 7 5 4 6 3 6 7 8 8 9 8 10 9 10 11 10 8 10 8 10 11 5 7 6 5 8 13 15 13 5 27 28 24 16 9 8 7 4 4 8 10
5 6 6 7 7 7 7 4 6 7 7 8 6 8 11 9 9 8 7 7 8 6 6 9 11 10 8 5 7 5 12 24 21 19 16 12 7 4 3 1 5 7 10
6 8 10 8 8 8 9 1 7 6 7 6 8 7 8 9 12 4 3 4 3 4 8 8 8 9 9 8 5 11 20 21 20 17 14 10 8 4 1 4 5 6 8
9 11 11 12 9 9 11 7 8 6 6 7 6 6 6 5 7 9 9 5 6 3 5 6 6 7 6 4 10 16 19 18 19 17 13 10 7 4 1 4 5 7 9
13 14 13 12 11 10 11 11 8 7 8 7 6 6 6 7 8 8 10 10 2 5 4 4 5 5 6 6 7 14 18 18 17 16 13 9 7 6 8 9 9 8 9
10 8 13 10 10 11 11 12 9 9 8 6 6 5 7 7 8 8 9 9 9 4 5 5 5 5 4 6 12 18 19 19 17 15 12 9 6 4 5 8 9 9 10
11 11 9 9 7 10 12 12 10 9 9 8 6 7 6 7 7 8 9 10 10 7 4 4 4 5 4 5 8 14 17 16 15 12 9 6 5 7 8 9 10 10 11
12 15 14 13 13 13 12 13 9 10 10 10 9 7 7 6 7 7 8 9 11 10 4 4 3 5 4 5 10 16 10 14 13 11 9 8 8 8 9 9 10 11 11
12 14 15 14 13 13 13 12 12 12 11 8 8 9 8 7 6 7 8 9 10 11 9 5 3 5 5 5 9 8 8 13 13 12 10 10 8 9 10 11 12 13 13
15 15 16 16 15 16 16 15 13 14 12 11 10 9 8 8 8 8 8 10 10 10 12 5 3 6 7 6 10 7 9 12 13 12 10 9 10 11 13 13 13 13 13
15 16 16 15 15 17 17 15 16 15 15 13 13 11 11 10 9 8 9 10 10 11 12 4 3 8 8 9 7 8 8 7 8 11 11 11 11 12 13 12 12 13 13
15 17 15 16 15 18 17 16 15 8 10 12 13 14 14 10 10 9 9 11 11 11 9 6 5 4 8 9 8 7 2 5 6 8 12 11 12 13 11 12 12 13 13
13 17 16 15 15 15 14 11 13 11 11 11 10 13 14 13 11 10 10 11 11 10 7 5 5 3 5 8 10 6 6 4 4 9 10 9 11 12 14 15 14 15 15
14 15 15 15 15 15 14 7 7 6 8 10 13 12 14 14 13 12 12 11 11 10 3 7 6 9 9 9 8 9 6 6 2 0 3 4 6 11 15 15 17 17 17
14 16 13 16 16 12 12 16 11 11 10 14 14 16 15 17 16 13 11 10 11 4 7 8 8 8 8 11 11 7 6 5 1 4 5 4 4 6 9 13 15 17 17
14 13 13 14 14 11 10 16 15 12 14 15 11 15 15 16 12 8 9 9 8 3 8 6 6 11 12 11 9 9 7 5 3 6 4 4 4 7 8 8 14 15 18
13 12 13 13 13 15 12 14 14 10 10 12 10 12 9 11 10 11 14 14 19 11 8 13 14 12 13 13 13 12 8 7 3 6 5 5 5 7 7 7 12 14 14
12 11 12 12 13 12 13 11 10 12 10 11 14 11 11 13 8 10 12 9 14 14 13 9 12 13 12 13 13 11 10 8 5 6 5 5 6 6 5 5 10 9 11
9 11 12 13 12 13 14 16 14 12 14 14 12 13 15 16 11 10 11 8 12 10 12 8 12 16 18 18 15 9 7 5 6 6 5 7 5 6 5 4 5 5 9
11 9 11 11 14 13 11 11 13 9 11 9 13 14 13 12 8 8 7 9 6 10 14 15 16 17 18 18 16 10 10 8 8 6 5 3 6 5 2 6 6 6 6
Wind_Direction
12 294 336 299 300 310 307 275 158 221 258 193 197 269 252 202 224 207 241 181 195 194 201 214 223 226 222 223 217 215 216 216 224 228 228 231 243 265 284 292 299 316 325
12 304 294 311 308 316 321 322 321 324 47 271 277 295 299 273 261 229 255 188 195 197 204 209 218 225 229 224 221 217 213 212 212 214 219 218 232 243 281 295 303 317 316
1 324 344 311 351 334 293 303 318 313 303 293 268 260 258 264 261 267 260 58 248 206 207 207 210 216 224 227 223 221 217 213 212 209 208 203 211 215 315 301 301 311 314
44 315 336 358 359 303 317 331 327 313 310 308 310 310 302 267 274 279 256 243 259 314 212 212 231 220 244 232 230 225 218 215 212 205 195 187 122 47 268 317 318 312 310
44 331 45 16 331 322 327 336 327 326 319 300 291 276 279 285 284 275 274 317 284 302 280 196 198 217 218 243 239 239 232 222 211 202 182 147 130 118 199 315 315 307 313
55 354 343 5 318 323 336 2 319 318 303 292 300 308 306 294 296 294 294 284 276 290 301 310 194 214 212 231 246 253 251 245 224 182 107 102 144 146 64 23 295 299 303
346 327 318 332 312 303 339 306 310 303 306 300 310 296 281 272 245 252 272 279 277 276 267 341 286 305 351 233 254 268 293 348 102 141 136 153 172 142 161 191 325 315 314
315 305 327 316 304 299 281 272 299 302 304 295 306 303 288 283 258 225 237 260 242 291 307 41 1 349 335 324 11 58 136 126 132 120 130 147 144 128 72 161 253 279 291
312 302 294 285 294 282 284 248 271 285 291 301 274 284 294 296 342 298 109 198 302 293 16 34 4 354 350 346 351 119 128 126 123 135 135 137 132 154 205 305 304 301 307
273 271 269 275 264 272 296 285 253 267 267 285 285 266 263 286 293 305 315 328 96 164 36 31 0 11 3 74 96 124 123 123 122 126 126 138 124 76 289 306 321 328 321
271 258 253 246 261 260 257 272 279 253 292 266 279 295 295 286 242 251 286 301 265 134 67 49 36 29 19 62 96 117 119 117 116 110 95 81 65 23 10 346 325 336 322
277 279 287 254 242 251 255 264 235 243 255 300 295 294 272 278 290 292 282 279 287 286 61 49 51 62 49 81 102 115 113 106 98 94 87 75 57 23 14 345 339 338 334
278 275 290 299 262 254 256 259 242 238 232 241 240 273 287 275 295 293 289 284 277 285 105 62 82 84 84 96 110 113 106 103 100 97 95 88 66 42 23 9 358 353 344
298 299 297 289 279 266 251 250 259 237 235 224 230 249 276 275 278 283 285 290 284 274 145 112 96 103 106 110 128 115 114 109 105 101 91 71 53 46 32 17 8 0 349
291 287 291 283 286 280 256 241 240 236 243 233 231 233 250 261 272 285 289 281 278 284 274 141 133 138 136 137 128 116 120 119 112 97 82 65 49 45 32 19 9 3 352
301 294 288 282 273 274 271 251 239 230 235 230 235 235 240 260 266 271 284 276 264 262 270 110 140 152 149 128 132 134 121 117 106 92 79 69 52 39 32 20 13 3 354
288 281 283 285 288 278 269 251 242 232 232 228 233 240 244 252 260 271 285 279 264 260 262 82 94 156 135 139 137 125 133 110 103 90 78 73 59 47 32 23 15 12 1
285 282 277 270 278 274 270 261 239 231 256 240 236 243 245 249 255 258 261 263 273 287 292 118 131 150 138 134 120 97 92 103 102 94 88 78 61 52 41 30 23 16 10
270 280 284 278 269 271 281 295 253 232 235 242 237 252 247 247 254 263 272 274 258 237 235 147 123 133 127 131 118 115 119 103 112 109 99 102 87 65 46 32 30 23 16
278 278 277 275 271 270 261 254 289 278 269 273 254 244 260 251 253 259 261 253 255 269 131 141 129 140 140 134 136 142 140 110 178 106 199 93 101 91 63 36 29 23 18
277 274 287 291 278 271 272 253 223 249 248 248 253 258 240 245 254 263 266 246 260 251 142 137 137 144 146 154 169 152 134 113 178 226 234 175 93 63 47 38 28 23 23
273 272 272 274 276 267 251 268 285 256 253 251 260 254 248 247 224 228 259 272 288 300 163 145 154 167 164 163 155 152 140 130 209 229 192 123 102 75 58 46 35 33 30
272 265 262 261 266 274 256 237 238 248 250 257 236 254 261 257 221 246 241 234 257 189 219 172 167 178 165 168 150 142 168 136 209 162 163 140 122 96 85 79 56 44 41
265 263 261 256 257 258 239 248 229 250 243 242 251 256 261 261 250 239 232 212 224 227 197 201 175 167 163 153 139 146 168 165 220 154 175 129 122 111 108 106 86 65 46
267 264 261 258 255 255 230 230 225 234 234 236 241 243 246 246 237 225 242 255 248 206 153 156 139 125 124 127 136 139 175 176 150 152 193 127 131 120 91 84 136 105 62
266 262 267 269 256 257 253 227 215 230 239 240 239 229 221 231 221 201 221 250 173 133 120 107 107 109 121 129 142 183 180 185 149 172 156 151 143 142 138 78 69 88 66